This is the latest recevied weather packets stored in our database for station/object KC3UTO. If no packets are shown the sender has not sent any weather packets the latest 10 day(s).
| Time | Temp. | Humidity | Pressure | Rain* | Wind** | Luminosity | Snow |
|---|---|---|---|---|---|---|---|
| 1777846213 | 15.56° C | 28% | 1011.1 hPa | 0 mm | - | 72 W/m² | - |
| 1777845909 | 15.56° C | 27% | 1011 hPa | 0 mm | - | 102 W/m² | - |
| 1777845605 | 15.56° C | 27% | 1010.9 hPa | 0 mm | - | 77 W/m² | - |
| 1777845303 | 15.56° C | 27% | 1011 hPa | 0 mm | - | 67 W/m² | - |
| 1777845000 | 15.56° C | 26% | 1011 hPa | 0 mm | - | 75 W/m² | - |
| 1777844698 | 15.56° C | 26% | 1011 hPa | 0 mm | - | 64 W/m² | - |
| 1777844394 | 15.56° C | 28% | 1010.8 hPa | 0 mm | - | 76 W/m² | - |
| 1777844093 | 15.56° C | 27% | 1011 hPa | 0 mm | - | 110 W/m² | - |
| 1777843789 | 15.56° C | 27% | 1010.9 hPa | 0 mm | - | 110 W/m² | - |
| 1777843486 | 15.56° C | 26% | 1010.9 hPa | 0 mm | - | 99 W/m² | - |
| 1777843184 | 15.56° C | 27% | 1010.8 hPa | 0 mm | - | 157 W/m² | - |
| 1777842881 | 15.56° C | 26% | 1010.9 hPa | 0 mm | - | 184 W/m² | - |
| 1777842576 | 15.56° C | 27% | 1010.8 hPa | 0 mm | - | 75 W/m² | - |
| 1777842273 | 15.56° C | 25% | 1010.9 hPa | 0 mm | - | 89 W/m² | - |
| 1777841968 | 15.56° C | 27% | 1010.8 hPa | 0 mm | - | 92 W/m² | - |
| 1777841665 | 15.56° C | 27% | 1010.9 hPa | 0 mm | - | 331 W/m² | - |
| 1777841361 | 15.56° C | 27% | 1010.9 hPa | 0 mm | - | 367 W/m² | - |
| 1777841059 | 15.56° C | 27% | 1010.8 hPa | 0 mm | - | 139 W/m² | - |
| 1777840756 | 15.56° C | 27% | 1011.1 hPa | 0 mm | - | 139 W/m² | - |
| 1777840453 | 15° C | 28% | 1011 hPa | 0 mm | - | 174 W/m² | - |
| 1777840150 | 15° C | 27% | 1011.1 hPa | 0 mm | - | 99 W/m² | - |
| 1777839848 | 15° C | 27% | 1011.1 hPa | 0 mm | - | 74 W/m² | - |
| 1777839546 | 15° C | 27% | 1011 hPa | 0 mm | - | 74 W/m² | - |
| 1777839243 | 15° C | 28% | 1011.2 hPa | 0 mm | - | 144 W/m² | - |
| 1777838941 | 15° C | 29% | 1011.2 hPa | 0 mm | - | 161 W/m² | - |
* Rain latest hour (hover to see other rain measurements)
** Current wind speed in m/s (hover to see current wind gust speed)